Time,TemperatureF,DewpointF,PressureIn,WindDirection,WindDirectionDegrees,WindSpeedMPH,WindSpeedGustMPH,Humidity,HourlyPrecipIn,Conditions,Clouds,dailyrainin,SoftwareType,DateUTC
2013-02-14 00:05:00,28.6,19.0,29.86,North,350,0.0,1.0,68,0.00,,,0.07,weatherlink.com 1.10,2013-02-14 05:05:00,
2013-02-14 00:21:00,28.4,19.0,29.86,North,350,0.0,0.0,68,0.00,,,0.07,weatherlink.com 1.10,2013-02-14 05:21:00,
2013-02-14 00:36:00,28.3,19.0,29.87,North,350,0.0,0.0,68,0.00,,,0.00,weatherlink.com 1.10,2013-02-14 05:36:00,
2013-02-14 00:51:00,28.4,19.0,29.87,North,350,0.0,0.0,68,0.00,,,0.00,weatherlink.com 1.10,2013-02-14 05:51:00,
2013-02-14 01:06:00,28.1,19.0,29.87,North,350,0.0,1.0,68,0.00,,,0.00,weatherlink.com 1.10,2013-02-14 06:06:00,
2013-02-14 01:21:00,27.8,19.0,29.88,North,350,0.0,0.0,69,0.00,,,0.00,weatherlink.com 1.10,2013-02-14 06:21:00,
2013-02-14 01:36:00,27.6,20.0,29.87,North,350,1.0,2.0,72,0.00,,,0.00,weatherlink.com 1.10,2013-02-14 06:36:00,
2013-02-14 01:52:00,27.1,20.0,29.88,North,350,0.0,0.0,73,0.00,,,0.00,weatherlink.com 1.10,2013-02-14 06:52:00,
2013-02-14 02:06:00,27.3,20.0,29.88,North,350,0.0,2.0,73,0.00,,,0.00,weatherlink.com 1.10,2013-02-14 07:06:00,
2013-02-14 02:21:00,27.4,19.0,29.89,NNW,347,0.0,0.0,72,0.00,,,0.00,weatherlink.com 1.10,2013-02-14 07:21:00,
2013-02-14 02:36:00,27.5,20.0,29.89,NNW,338,0.0,3.0,72,0.00,,,0.00,weatherlink.com 1.10,2013-02-14 07:36:00,
2013-02-14 02:51:00,27.5,19.0,29.89,NNE,18,0.0,2.0,71,0.00,,,0.00,weatherlink.com 1.10,2013-02-14 07:51:00,
2013-02-14 03:06:00,27.5,19.0,29.89,NNE,18,0.0,2.0,71,0.00,,,0.00,weatherlink.com 1.10,2013-02-14 08:06:00,
2013-02-14 03:21:00,27.0,19.0,29.90,NNE,18,0.0,1.0,72,0.00,,,0.00,weatherlink.com 1.10,2013-02-14 08:21:00,
2013-02-14 03:36:00,26.8,19.0,29.91,NNE,18,0.0,1.0,73,0.00,,,0.00,weatherlink.com 1.10,2013-02-14 08:36:00,
2013-02-14 03:51:00,26.6,19.0,29.91,NNE,18,0.0,1.0,73,0.00,,,0.00,weatherlink.com 1.10,2013-02-14 08:51:00,
2013-02-14 04:06:00,26.1,19.0,29.92,NNE,18,0.0,2.0,73,0.00,,,0.00,weatherlink.com 1.10,2013-02-14 09:06:00,
2013-02-14 04:21:00,25.6,18.0,29.92,NNE,18,0.0,2.0,73,0.00,,,0.00,weatherlink.com 1.10,2013-02-14 09:21:00,
2013-02-14 04:36:00,25.2,18.0,29.92,NNE,18,0.0,1.0,74,0.00,,,0.00,weatherlink.com 1.10,2013-02-14 09:36:00,
2013-02-14 04:51:00,25.0,18.0,29.93,NNW,330,0.0,3.0,74,0.00,,,0.00,weatherlink.com 1.10,2013-02-14 09:51:00,
2013-02-14 05:06:00,25.0,17.0,29.94,NNW,330,0.0,2.0,73,0.00,,,0.00,weatherlink.com 1.10,2013-02-14 10:06:00,
2013-02-14 05:22:00,24.6,17.0,29.93,NNW,327,0.0,2.0,73,0.00,,,0.00,weatherlink.com 1.10,2013-02-14 10:22:00,
2013-02-14 05:36:00,24.1,17.0,29.94,NNW,327,0.0,1.0,74,0.00,,,0.00,weatherlink.com 1.10,2013-02-14 10:36:00,
2013-02-14 05:51:00,24.0,17.0,29.93,NNW,327,0.0,2.0,74,0.00,,,0.00,weatherlink.com 1.10,2013-02-14 10:51:00,
2013-02-14 06:06:00,23.6,17.0,29.95,NNW,327,0.0,2.0,75,0.00,,,0.00,weatherlink.com 1.10,2013-02-14 11:06:00,
2013-02-14 06:21:00,23.6,17.0,29.96,NNW,327,1.0,2.0,76,0.00,,,0.00,weatherlink.com 1.10,2013-02-14 11:21:00,
2013-02-14 06:36:00,24.1,17.0,29.96,NNW,327,0.0,2.0,74,0.00,,,0.00,weatherlink.com 1.10,2013-02-14 11:36:00,
2013-02-14 06:52:00,23.8,17.0,29.96,NNW,327,1.0,3.0,74,0.00,,,0.00,weatherlink.com 1.10,2013-02-14 11:52:00,
2013-02-14 07:06:00,23.8,17.0,29.97,NNW,327,0.0,2.0,74,0.00,,,0.00,weatherlink.com 1.10,2013-02-14 12:06:00,
2013-02-14 07:21:00,24.6,17.0,29.98,NNW,327,0.0,1.0,74,0.00,,,0.00,weatherlink.com 1.10,2013-02-14 12:21:00,
2013-02-14 07:36:00,25.9,18.0,29.99,NNW,327,0.0,0.0,72,0.00,,,0.00,weatherlink.com 1.10,2013-02-14 12:36:00,
2013-02-14 07:52:00,27.6,18.0,30.00,NNW,327,0.0,2.0,68,0.00,,,0.00,weatherlink.com 1.10,2013-02-14 12:52:00,
2013-02-14 08:07:00,28.6,18.0,30.00,NW,325,0.0,4.0,66,0.00,,,0.00,weatherlink.com 1.10,2013-02-14 13:07:00,
2013-02-14 08:22:00,29.0,19.0,30.01,NW,324,0.0,3.0,66,0.00,,,0.00,weatherlink.com 1.10,2013-02-14 13:22:00,
2013-02-14 08:37:00,29.6,19.0,30.02,NW,312,1.0,4.0,64,0.00,,,0.00,weatherlink.com 1.10,2013-02-14 13:37:00,
2013-02-14 08:52:00,30.2,19.0,30.03,WNW,300,2.0,5.0,63,0.00,,,0.00,weatherlink.com 1.10,2013-02-14 13:52:00,
2013-02-14 09:07:00,30.8,19.0,30.04,WNW,300,2.0,7.0,62,0.00,,,0.00,weatherlink.com 1.10,2013-02-14 14:07:00,
2013-02-14 09:22:00,31.9,19.0,30.04,WNW,301,1.0,6.0,60,0.01,,,0.01,weatherlink.com 1.10,2013-02-14 14:22:00,
2013-02-14 09:37:00,33.3,19.0,30.04,West,281,2.0,5.0,56,0.01,,,0.01,weatherlink.com 1.10,2013-02-14 14:37:00,
2013-02-14 09:52:00,34.8,19.0,30.05,North,5,2.0,3.0,53,0.01,,,0.01,weatherlink.com 1.10,2013-02-14 14:52:00,
2013-02-14 10:07:00,34.1,19.0,30.05,NW,315,3.0,9.0,54,0.01,,,0.01,weatherlink.com 1.10,2013-02-14 15:07:00,
2013-02-14 10:22:00,34.0,19.0,30.05,WNW,290,3.0,7.0,54,0.00,,,0.01,weatherlink.com 1.10,2013-02-14 15:22:00,
2013-02-14 10:37:00,34.6,19.0,30.06,WNW,292,3.0,7.0,54,0.01,,,0.02,weatherlink.com 1.10,2013-02-14 15:37:00,
2013-02-14 10:52:00,35.4,20.0,30.05,NNW,329,2.0,7.0,54,0.01,,,0.02,weatherlink.com 1.10,2013-02-14 15:52:00,
2013-02-14 11:07:00,35.2,19.0,30.05,SSE,158,2.0,8.0,52,0.01,,,0.02,weatherlink.com 1.10,2013-02-14 16:07:00,
2013-02-14 11:22:00,36.6,20.0,30.05,WSW,258,1.0,6.0,52,0.01,,,0.02,weatherlink.com 1.10,2013-02-14 16:22:00,
2013-02-14 11:37:00,35.0,20.0,30.05,WNW,300,4.0,10.0,55,0.00,,,0.02,weatherlink.com 1.10,2013-02-14 16:37:00,
2013-02-14 11:52:00,35.8,21.0,30.05,North,10,4.0,6.0,55,0.00,,,0.02,weatherlink.com 1.10,2013-02-14 16:52:00,
2013-02-14 12:07:00,36.4,21.0,30.05,WNW,284,3.0,7.0,55,0.00,,,0.02,weatherlink.com 1.10,2013-02-14 17:07:00,
2013-02-14 12:22:00,36.2,20.0,30.04,WNW,294,0.0,8.0,53,0.00,,,0.02,weatherlink.com 1.10,2013-02-14 17:22:00,
2013-02-14 12:37:00,36.8,20.0,30.04,NW,317,3.0,11.0,52,0.01,,,0.03,weatherlink.com 1.10,2013-02-14 17:37:00,
2013-02-14 12:52:00,36.2,20.0,30.04,West,278,3.0,9.0,53,0.01,,,0.03,weatherlink.com 1.10,2013-02-14 17:52:00,
2013-02-14 13:07:00,36.6,21.0,30.03,West,280,2.0,7.0,54,0.01,,,0.03,weatherlink.com 1.10,2013-02-14 18:07:00,
2013-02-14 13:22:00,36.8,20.0,30.03,WNW,296,5.0,6.0,51,0.01,,,0.03,weatherlink.com 1.10,2013-02-14 18:22:00,
2013-02-14 13:37:00,37.4,20.0,30.03,SSW,194,0.0,4.0,50,0.00,,,0.03,weatherlink.com 1.10,2013-02-14 18:37:00,
2013-02-14 13:52:00,37.6,20.0,30.03,WNW,296,1.0,6.0,50,0.00,,,0.03,weatherlink.com 1.10,2013-02-14 18:52:00,
2013-02-14 14:07:00,38.1,20.0,30.02,NNW,331,2.0,6.0,49,0.00,,,0.03,weatherlink.com 1.10,2013-02-14 19:07:00,
2013-02-14 14:23:00,39.0,21.0,30.04,West,268,3.0,3.0,49,0.00,,,0.03,weatherlink.com 1.10,2013-02-14 19:23:00,
2013-02-14 14:37:00,38.6,20.0,30.04,SW,214,4.0,6.0,47,0.00,,,0.03,weatherlink.com 1.10,2013-02-14 19:37:00,
2013-02-14 14:52:00,39.2,21.0,30.03,WNW,292,5.0,5.0,48,0.00,,,0.03,weatherlink.com 1.10,2013-02-14 19:52:00,
2013-02-14 15:08:00,39.1,20.0,30.03,NW,323,1.0,7.0,47,0.00,,,0.03,weatherlink.com 1.10,2013-02-14 20:08:00,
2013-02-14 15:23:00,39.4,20.0,30.04,WSW,240,0.0,4.0,46,0.00,,,0.03,weatherlink.com 1.10,2013-02-14 20:23:00,
2013-02-14 15:37:00,39.2,20.0,30.04,WNW,297,0.0,6.0,47,0.00,,,0.03,weatherlink.com 1.10,2013-02-14 20:37:00,
2013-02-14 15:52:00,39.1,20.0,30.05,SW,232,3.0,5.0,47,0.00,,,0.03,weatherlink.com 1.10,2013-02-14 20:52:00,
2013-02-14 16:07:00,38.4,21.0,30.05,SSW,196,2.0,8.0,50,0.00,,,0.03,weatherlink.com 1.10,2013-02-14 21:07:00,
2013-02-14 16:22:00,38.4,21.0,30.06,SSW,207,1.0,5.0,50,0.00,,,0.03,weatherlink.com 1.10,2013-02-14 21:22:00,
2013-02-14 16:53:00,37.5,21.0,30.06,SSW,203,1.0,5.0,51,0.00,,,0.03,weatherlink.com 1.10,2013-02-14 21:53:00,
2013-02-14 17:07:00,36.0,21.0,30.07,WNW,292,3.0,4.0,55,0.00,,,0.03,weatherlink.com 1.10,2013-02-14 22:07:00,
2013-02-14 17:22:00,35.4,21.0,30.07,WNW,295,3.0,5.0,56,0.00,,,0.03,weatherlink.com 1.10,2013-02-14 22:22:00,
2013-02-14 17:38:00,35.0,21.0,30.09,WNW,296,4.0,7.0,57,0.00,,,0.03,weatherlink.com 1.10,2013-02-14 22:38:00,
2013-02-14 17:53:00,34.6,21.0,30.09,NW,311,3.0,7.0,57,0.00,,,0.03,weatherlink.com 1.10,2013-02-14 22:53:00,
2013-02-14 18:08:00,34.1,21.0,30.09,WNW,285,1.0,5.0,58,0.00,,,0.03,weatherlink.com 1.10,2013-02-14 23:08:00,
2013-02-14 18:23:00,33.7,21.0,30.09,WNW,302,3.0,8.0,59,0.00,,,0.03,weatherlink.com 1.10,2013-02-14 23:23:00,
2013-02-14 18:38:00,33.4,20.0,30.10,WNW,296,3.0,6.0,59,0.00,,,0.03,weatherlink.com 1.10,2013-02-14 23:38:00,
2013-02-14 18:53:00,32.8,21.0,30.10,WNW,301,0.0,5.0,61,0.00,,,0.03,weatherlink.com 1.10,2013-02-14 23:53:00,
2013-02-14 19:08:00,32.1,20.0,30.11,WNW,301,1.0,3.0,62,0.00,,,0.03,weatherlink.com 1.10,2013-02-15 00:08:00,
2013-02-14 19:23:00,31.4,20.0,30.11,WNW,301,0.0,2.0,63,0.00,,,0.03,weatherlink.com 1.10,2013-02-15 00:23:00,
2013-02-14 19:53:00,30.2,20.0,30.11,WNW,301,2.0,2.0,65,0.00,,,0.03,weatherlink.com 1.10,2013-02-15 00:53:00,
2013-02-14 20:08:00,29.6,19.0,30.11,WNW,301,1.0,2.0,66,0.00,,,0.03,weatherlink.com 1.10,2013-02-15 01:08:00,
2013-02-14 20:23:00,29.7,20.0,30.10,WNW,301,1.0,2.0,66,0.00,,,0.03,weatherlink.com 1.10,2013-02-15 01:23:00,
2013-02-14 20:38:00,29.9,20.0,30.11,WNW,301,1.0,2.0,66,0.00,,,0.03,weatherlink.com 1.10,2013-02-15 01:38:00,
2013-02-14 20:53:00,29.6,20.0,30.11,WNW,301,0.0,1.0,67,0.00,,,0.03,weatherlink.com 1.10,2013-02-15 01:53:00,
2013-02-14 21:08:00,29.0,20.0,30.11,WNW,301,2.0,2.0,68,0.00,,,0.03,weatherlink.com 1.10,2013-02-15 02:08:00,
2013-02-14 21:23:00,29.8,20.0,30.11,WNW,301,1.0,2.0,67,0.00,,,0.03,weatherlink.com 1.10,2013-02-15 02:23:00,
2013-02-14 21:38:00,29.2,20.0,30.12,WNW,301,1.0,2.0,69,0.00,,,0.03,weatherlink.com 1.10,2013-02-15 02:38:00,
2013-02-14 21:53:00,29.2,21.0,30.12,WNW,301,1.0,2.0,70,0.00,,,0.03,weatherlink.com 1.10,2013-02-15 02:53:00,
2013-02-14 22:08:00,30.4,21.0,30.11,WNW,301,1.0,3.0,68,0.00,,,0.03,weatherlink.com 1.10,2013-02-15 03:08:00,
2013-02-14 22:23:00,30.9,21.0,30.09,WNW,301,2.0,2.0,67,0.00,,,0.03,weatherlink.com 1.10,2013-02-15 03:23:00,
2013-02-14 22:38:00,30.1,20.0,30.10,WNW,301,0.0,2.0,67,0.00,,,0.03,weatherlink.com 1.10,2013-02-15 03:38:00,
2013-02-14 22:53:00,29.8,20.0,30.11,WNW,300,1.0,2.0,68,0.00,,,0.03,weatherlink.com 1.10,2013-02-15 03:53:00,
2013-02-14 23:08:00,29.2,21.0,30.10,WNW,301,0.0,1.0,70,0.00,,,0.03,weatherlink.com 1.10,2013-02-15 04:08:00,
2013-02-14 23:23:00,28.2,20.0,30.10,WNW,301,1.0,2.0,71,0.00,,,0.03,weatherlink.com 1.10,2013-02-15 04:23:00,
2013-02-14 23:38:00,28.3,20.0,30.11,SSW,209,1.0,3.0,72,0.00,,,0.03,weatherlink.com 1.10,2013-02-15 04:38:00,
2013-02-14 23:53:00,27.3,20.0,30.10,SSW,209,1.0,2.0,73,0.00,,,0.03,weatherlink.com 1.10,2013-02-15 04:53:00,